When you browse on this site, cookies collect data to enhance your experience and personalize the content and advertising you see.
Visit our Privacy Policy to learn more. By continuing to use the site, you agree to this use of cookies and data.
  • în România
  • Lista ţărilor
  • Pe 7 zile
  • Temperatura apei
  • Hartă satelitară
  • Meteo pe hartă
  • Widget-uri
  • user-avatar
    Intrare

    Meteo pe oră la Aschbach

    Astăzi, 25 Aprilie, Joi

    Timp Temperatura Precipitaţii Vânt Presiune Umiditate
    00:00 +8°C° 0 mm 1 m/s 711 mmHg 91%
    01:00 +8°C° 0 mm 1 m/s 712 mmHg 90%
    02:00 +8°C° 0 mm 1 m/s 711 mmHg 89%
    03:00 +7°C° 0 mm 1 m/s 711 mmHg 88%
    04:00 +7°C° 0 mm 1 m/s 711 mmHg 87%
    05:00 +8°C° 0 mm 1 m/s 711 mmHg 84%
    06:00 +9°C° 0 mm 1 m/s 711 mmHg 80%
    07:00 +10°C° 0 mm 1 m/s 712 mmHg 77%
    08:00 +13°C° 0 mm 1 m/s 712 mmHg 66%
    09:00 +16°C° 0 mm 1 m/s 712 mmHg 55%
    10:00 +20°C° 0 mm 1 m/s 713 mmHg 44%
    11:00 +20°C° 0 mm 2 m/s 712 mmHg 40%
    12:00 +21°C° 0 mm 2 m/s 712 mmHg 36%
    13:00 +22°C° 0 mm 3 m/s 712 mmHg 32%
    14:00 +22°C° 0 mm 3 m/s 711 mmHg 33%
    15:00 +21°C° 0 mm 3 m/s 711 mmHg 35%
    16:00 +21°C° 0 mm 4 m/s 711 mmHg 37%
    17:00 +19°C° 0 mm 3 m/s 711 mmHg 45%
    18:00 +17°C° 0 mm 2 m/s 711 mmHg 53%
    19:00 +15°C° 0 mm 1 m/s 711 mmHg 60%
    20:00 +13°C° 0 mm 1 m/s 711 mmHg 66%
    21:00 +12°C° 0 mm 1 m/s 711 mmHg 72%
    22:00 +11°C° 0 mm 1 m/s 711 mmHg 77%
    23:00 +10°C° 0 mm 1 m/s 711 mmHg 82%

    Mâine, 26 Aprilie, Vineri

    Timp Temperatura Precipitaţii Vânt Presiune Umiditate
    00:00 +9°C° 0 mm 1 m/s 711 mmHg 88%
    01:00 +9°C° 0 mm 1 m/s 711 mmHg 93%
    02:00 +9°C° 0 mm 1 m/s 711 mmHg 93%
    03:00 +8°C° 0 mm 0 m/s 711 mmHg 93%
    04:00 +7°C° 0 mm 0 m/s 711 mmHg 93%
    05:00 +8°C° 0.3 mm 1 m/s 711 mmHg 94%
    06:00 +8°C° 0.3 mm 1 m/s 711 mmHg 95%
    07:00 +7°C° 0.3 mm 2 m/s 711 mmHg 96%
    08:00 +7°C° 4.2 mm 2 m/s 711 mmHg 96%
    09:00 +5°C° 4.2 mm 3 m/s 712 mmHg 96%
    10:00 +4°C° 4.2 mm 3 m/s 712 mmHg 96%
    11:00 +5°C° 1.9 mm 3 m/s 713 mmHg 95%
    12:00 +5°C° 1.9 mm 3 m/s 714 mmHg 95%
    13:00 +5°C° 1.9 mm 3 m/s 715 mmHg 94%
    14:00 +7°C° 0.9 mm 3 m/s 715 mmHg 93%
    15:00 +7°C° 0.9 mm 3 m/s 716 mmHg 92%
    16:00 +8°C° 0.9 mm 3 m/s 716 mmHg 91%
    17:00 +7°C° 0.1 mm 2 m/s 716 mmHg 90%
    18:00 +7°C° 0.1 mm 2 m/s 716 mmHg 89%
    19:00 +7°C° 0.1 mm 2 m/s 717 mmHg 88%
    20:00 +7°C° 0 mm 1 m/s 717 mmHg 88%
    21:00 +6°C° 0 mm 1 m/s 717 mmHg 88%
    22:00 +5°C° 0 mm 1 m/s 718 mmHg 88%
    23:00 +4°C° 0 mm 1 m/s 718 mmHg 86%

    Poimâine, 27 Aprilie, Sâmbătă

    Timp Temperatura Precipitaţii Vânt Presiune Umiditate
    00:00 +4°C° 0 mm 1 m/s 718 mmHg 85%
    01:00 +4°C° 0 mm 1 m/s 718 mmHg 84%
    02:00 +3°C° 0 mm 2 m/s 718 mmHg 82%
    03:00 +3°C° 0 mm 2 m/s 718 mmHg 81%
    04:00 +3°C° 0 mm 2 m/s 718 mmHg 79%
    05:00 +3°C° 0 mm 2 m/s 718 mmHg 76%
    06:00 +4°C° 0 mm 2 m/s 718 mmHg 73%
    07:00 +5°C° 0 mm 2 m/s 718 mmHg 70%
    08:00 +6°C° 0.4 mm 2 m/s 718 mmHg 75%
    09:00 +6°C° 0.4 mm 2 m/s 717 mmHg 80%
    10:00 +7°C° 0.4 mm 3 m/s 717 mmHg 85%
    11:00 +8°C° 0.4 mm 3 m/s 717 mmHg 80%
    12:00 +10°C° 0.4 mm 4 m/s 717 mmHg 76%
    13:00 +11°C° 0.4 mm 4 m/s 717 mmHg 71%
    14:00 +11°C° 0.4 mm 4 m/s 716 mmHg 72%
    15:00 +10°C° 0.4 mm 5 m/s 716 mmHg 73%
    16:00 +10°C° 0.4 mm 5 m/s 716 mmHg 75%
    17:00 +10°C° 0.8 mm 4 m/s 716 mmHg 81%
    18:00 +7°C° 0.8 mm 4 m/s 716 mmHg 87%
    19:00 +7°C° 0.8 mm 3 m/s 715 mmHg 93%
    20:00 +5°C° 0.3 mm 3 m/s 716 mmHg 93%
    21:00 +5°C° 0.3 mm 3 m/s 716 mmHg 94%
    22:00 +4°C° 0.3 mm 3 m/s 716 mmHg 94%
    23:00 +3°C° 0.2 mm 3 m/s 716 mmHg 94%

    28 Aprilie, Duminică

    Timp Temperatura Precipitaţii Vânt Presiune Umiditate
    00:00 +3°C° 0.2 mm 3 m/s 716 mmHg 94%
    01:00 +4°C° 0.2 mm 2 m/s 716 mmHg 94%
    02:00 +3°C° 0 mm 2 m/s 716 mmHg 94%
    03:00 +3°C° 0 mm 2 m/s 716 mmHg 94%
    04:00 +3°C° 0 mm 1 m/s 716 mmHg 94%
    05:00 +4°C° 0.2 mm 1 m/s 716 mmHg 93%
    06:00 +5°C° 0.2 mm 1 m/s 716 mmHg 92%
    07:00 +5°C° 0.2 mm 1 m/s 716 mmHg 91%
    08:00 +6°C° 0 mm 2 m/s 716 mmHg 83%
    09:00 +7°C° 0 mm 2 m/s 716 mmHg 75%
    10:00 +8°C° 0 mm 3 m/s 717 mmHg 67%
    11:00 +9°C° 0.1 mm 3 m/s 717 mmHg 65%
    12:00 +10°C° 0.1 mm 2 m/s 716 mmHg 62%
    13:00 +12°C° 0.1 mm 2 m/s 716 mmHg 59%
    14:00 +12°C° 0.6 mm 2 m/s 716 mmHg 65%
    15:00 +11°C° 0.6 mm 1 m/s 716 mmHg 70%
    16:00 +11°C° 0.6 mm 1 m/s 716 mmHg 75%
    17:00 +10°C° 0.3 mm 1 m/s 716 mmHg 79%
    18:00 +9°C° 0.3 mm 1 m/s 717 mmHg 84%
    19:00 +8°C° 0.3 mm 1 m/s 717 mmHg 88%
    20:00 +7°C° 0 mm 1 m/s 717 mmHg 90%
    21:00 +6°C° 0 mm 1 m/s 717 mmHg 91%
    22:00 +5°C° 0 mm 1 m/s 718 mmHg 93%
    23:00 +5°C° 0 mm 1 m/s 718 mmHg 93%

    29 Aprilie, Luni

    Timp Temperatura Precipitaţii Vânt Presiune Umiditate
    00:00 +5°C° 0 mm 1 m/s 718 mmHg 93%
    01:00 +5°C° 0 mm 1 m/s 718 mmHg 93%
    02:00 +4°C° 0 mm 0 m/s 718 mmHg 93%
    03:00 +4°C° 0 mm 0 m/s 718 mmHg 93%
    04:00 +4°C° 0 mm 0 m/s 718 mmHg 93%
    05:00 +5°C° 0 mm 0 m/s 718 mmHg 92%
    06:00 +5°C° 0 mm 0 m/s 718 mmHg 92%
    07:00 +5°C° 0 mm 0 m/s 718 mmHg 91%
    08:00 +7°C° 0 mm 0 m/s 718 mmHg 85%
    09:00 +9°C° 0 mm 0 m/s 717 mmHg 78%
    10:00 +12°C° 0 mm 0 m/s 717 mmHg 71%
    11:00 +14°C° 0 mm 1 m/s 717 mmHg 64%
    12:00 +15°C° 0 mm 1 m/s 717 mmHg 57%
    13:00 +16°C° 0 mm 1 m/s 717 mmHg 50%
    14:00 +16°C° 0.1 mm 2 m/s 716 mmHg 52%
    15:00 +15°C° 0.1 mm 2 m/s 716 mmHg 55%
    16:00 +15°C° 0.1 mm 2 m/s 716 mmHg 57%
    17:00 +14°C° 0.4 mm 1 m/s 716 mmHg 67%
    18:00 +12°C° 0.4 mm 1 m/s 716 mmHg 77%
    19:00 +11°C° 0.4 mm 1 m/s 716 mmHg 86%
    20:00 +10°C° 0.2 mm 1 m/s 716 mmHg 88%
    21:00 +8°C° 0.2 mm 0 m/s 717 mmHg 90%
    22:00 +7°C° 0.2 mm 0 m/s 717 mmHg 92%
    23:00 +7°C° 0.1 mm 0 m/s 717 mmHg 93%

    30 Aprilie, Marţi

    Timp Temperatura Precipitaţii Vânt Presiune Umiditate
    00:00 +7°C° 0.1 mm 0 m/s 717 mmHg 94%
    01:00 +7°C° 0.1 mm 1 m/s 716 mmHg 95%
    02:00 +7°C° 0.1 mm 1 m/s 716 mmHg 95%
    03:00 +7°C° 0.1 mm 1 m/s 716 mmHg 95%
    04:00 +7°C° 0.1 mm 1 m/s 716 mmHg 95%
    05:00 +7°C° 0.1 mm 1 m/s 716 mmHg 94%
    06:00 +8°C° 0.1 mm 1 m/s 716 mmHg 92%
    07:00 +8°C° 0.1 mm 1 m/s 716 mmHg 91%
    08:00 +10°C° 0 mm 1 m/s 716 mmHg 85%
    09:00 +11°C° 0 mm 1 m/s 715 mmHg 79%
    10:00 +13°C° 0 mm 1 m/s 715 mmHg 73%
    11:00 +13°C° 0.1 mm 1 m/s 715 mmHg 73%
    12:00 +13°C° 0.1 mm 1 m/s 715 mmHg 72%
    13:00 +14°C° 0.1 mm 1 m/s 715 mmHg 72%
    14:00 +13°C° 0.1 mm 1 m/s 715 mmHg 75%
    15:00 +13°C° 0.1 mm 1 m/s 714 mmHg 77%
    16:00 +13°C° 0.1 mm 1 m/s 714 mmHg 80%
    17:00 +12°C° 0.1 mm 1 m/s 714 mmHg 83%
    18:00 +12°C° 0.1 mm 1 m/s 714 mmHg 87%
    19:00 +10°C° 0.1 mm 0 m/s 714 mmHg 90%
    20:00 +9°C° 0 mm 0 m/s 714 mmHg 92%
    21:00 +8°C° 0 mm 0 m/s 714 mmHg 94%
    22:00 +7°C° 0 mm 0 m/s 715 mmHg 96%
    23:00 +7°C° 0 mm 0 m/s 715 mmHg 96%
    Arată mai mult